Lid_Strength_Index
2 2 2 2 2 2 2 1 1 1 1 2 2 3 5 5 5 4 4 4 4 4
2 2 2 2 1 1 1 1 1 2 1 2 2 3 4 6 6 4 4 4 4 4
2 2 1 1 2 2 1 1 1 2 1 2 1 2 3 4 4 4 4 4 4 5
3 2 2 2 2 1 1 1 2 2 2 2 2 3 3 4 4 5 5 4 4 6
2 2 2 3 3 3 4 1 2 2 3 2 2 2 3 3 4 5 6 5 6 5
4 3 3 2 2 3 3 4 3 2 3 3 3 3 3 3 3 4 5 5 5 5
6 5 3 3 3 3 3 5 5 4 3 3 3 3 3 3 3 4 4 5 5 5
6 6 3 4 5 5 5 5 5 6 5 2 3 3 4 4 4 4 4 5 5 5
6 6 6 5 6 6 7 6 5 6 6 6 3 8 9 5 4 4 5 5 5 5
6 7 7 5 5 6 7 7 8 7 6 6 6 9 10 10 4 4 5 5 6 6
6 6 6 6 6 7 7 8 8 8 7 6 7 10 11 12 6 5 5 6 6 7
8 8 6 6 6 6 7 9 10 10 9 8 9 12 12 11 9 9 10 9 9 7
6 6 6 6 8 8 8 10 12 14 14 12 11 11 11 11 12 13 14 13 11 11
5 5 5 6 8 11 12 12 13 14 14 13 13 11 10 10 12 12 14 14 14 15